This demonstration page uses our WeatherBlox Daily Observations layout. Learn more.

39.92423, -83.80882

Hourly Observations for May 6, 2016

Temp ( °F °C ) Dew Point ( °F °C ) Humidity (%) Winds ( mph kmh ) Pressure ( in mb ) Visibility ( mi km ) Precip ( " mm )
12:56 am 00:56 Clear 49 9.4 39 3.8 68 68 NNW 6 9 29.91 1013 10 16.0934 0 0
1:56 am 01:56 Clear 48 8.8 39 3.8 71 71 NW 6 9 29.92 1013 10 16.0934 0 0
2:56 am 02:56 Clear 46 7.7 40 4.4 80 80 NW 9 15 29.92 1013 10 16.0934 0 0
3:56 am 03:56 Clear 45 7.2 38 3.3 77 77 NW 7 11 29.91 1013 10 16.0934 0 0
4:56 am 04:56 Clear 45 7.2 37 2.7 73 73 W 6 9 29.91 1013 10 16.0934 0 0
5:56 am 05:56 Clear 42 5.5 38 3.3 86 86 W 7 11 29.92 1013 10 16.0934 0 0
6:56 am 06:56 Sunny 42 5.5 40 4.4 93 93 NW 7 11 29.93 1014 10 16.0934 0 0
7:56 am 07:56 Sunny 47 8.3 43 6.1 86 86 NW 6 9 29.96 1014 10 16.0934 0 0
8:56 am 08:56 Sunny 54 12.2 42 5.5 64 64 NNW 8 13 29.97 1015 10 16.0934 0 0
9:56 am 09:56 Sunny 59 15 43 6.1 56 56 NNW 7 11 29.98 1015 10 16.0934 0 0
10:56 am 10:56 Sunny 63 17.2 43 6.1 48 48 NNW 10 17 29.98 1015 10 16.0934 0 0
11:56 am 11:56 Sunny 65 18.3 43 6.1 45 45 NNE 8 13 29.98 1015 10 16.0934 0 0
12:56 pm 12:56 Mostly Sunny 65 18.3 43 6.1 45 45 NNW 13 20 29.97 1015 10 16.0934 0 0
1:56 pm 13:56 Mostly Sunny 68 20 40 4.4 36 36 NW 16 26 29.94 1014 10 16.0934 0 0
2:56 pm 14:56 Sunny 69 20.5 41 5 36 36 N 9 15 29.93 1013 10 16.0934 0 0
3:56 pm 15:56 Sunny 69 20.5 40 4.4 35 35 NNW 14 22 29.91 1013 10 16.0934 0 0
4:56 pm 16:56 Mostly Sunny 69 20.5 44 6.6 41 41 WNW 13 20 29.89 1012 10 16.0934 0 0
5:56 pm 17:56 Mostly Sunny 69 20.5 43 6.1 39 39 NW 15 24 29.88 1012 10 16.0934 0 0
6:56 pm 18:56 Sunny 68 20 41 5 38 38 NW 15 24 29.88 1012 10 16.0934 0 0
7:56 pm 19:56 Sunny 66 18.8 42 5.5 42 42 NW 10 17 29.88 1012 10 16.0934 0 0
8:56 pm 20:56 Clear 60 15.5 42 5.5 52 52 NW 5 7 29.88 1012 10 16.0934 0 0
9:56 pm 21:56 Clear 57 13.8 43 6.1 60 60 Calm 29.89 1012 10 16.0934 0 0
10:56 pm 22:56 Clear 53 11.6 43 6.1 69 69 SW 3 6 29.88 1012 10 16.0934 0 0
11:56 pm 23:56 Clear 50 10 44 6.6 80 80 Calm 29.88 1012 10 16.0934 0 0

Powered by AerisWeather